Torna al catalogo

ELISA E12

AttivoMilitareSSO
NORAD 38010·PAYLOAD·🇫🇷 France

Lanciato Dec 17, 2011 da Guiana Space Centre

Loading…

Prossimi Passaggi (prossime 24 ore)

TLE

AggiornatoSource: Space-Track

Epoca: Sep 14, 2026, 14:39 UTC

1 38010U 11076D   26257.61102285  .00001012  00000-0  10273-3 0  9994
2 38010  97.6362 281.0110 0000754 101.3814 258.7491 14.92977185792562

Traccia ELISA E12 in tempo reale con AllMySat

Download on the App Store